Regional Weather Roundup
Issued by NWS Northern Indiana

Home | Current Version | Previous Version | Text Only | Print | Product List | Glossary Off
Versions: 1 2 3 4 5 6 7 8 9 10 11 12 13 14 15 16 17 18 19 20 21 22 23 24 25 26 27 28 29 30 31 32 33 34 35 36 37 38 39 40 41 42 43 44 45 46 47 48 49 50

000
ASUS43 KIWX 250110
RWRIWX

KIWX WEATHER ROUNDUP
NATIONAL WEATHER SERVICE NORTHERN INDIANA
900 PM EDT TUE APR 24 2018

NOTE: "FAIR" INDICATES FEW OR NO CLOUDS BELOW 12,000 FEET WITH NO
SIGNIFICANT WEATHER AND/OR OBSTRUCTIONS TO VISIBILITY.

* THESE STATIONS ARE NOT UNDER NWS QUALITY CONTROL. THEY ALSO MAY NOT
  REPORT WEATHER SUCH AS PRECIPITATION OR FOG.

INZ001>027-250200-
NORTHERN INDIANA

CITY           SKY/WX    TMP DP  RH WIND       PRES   REMARKS
GARY*          PTCLDY    46  43  87 N5        30.01S
VALPARAISO     CLOUDY    55  48  77 N6        29.98S
MICHIGAN CITY* CLOUDY    50  46  87 NE6       29.99S
LAPORTE*       CLOUDY    53  48  81 N9        29.99R
KNOX*          CLOUDY    54  48  82 N7        29.97S
SOUTH BEND     CLOUDY    55  48  77 N8        29.98S
ELKHART*       CLOUDY    57  48  72 CALM      29.97R
GOSHEN         CLOUDY    56  50  80 NE6       29.96S
MONTICELLO*    CLOUDY    57  49  75 N7        29.96R
LOGANSPORT*    CLOUDY    54  50  87 N5        29.97R
ROCHESTER*     CLOUDY    57  52  82 N3        29.97R
WARSAW*        CLOUDY    54  50  87 NE3       29.96S
AUBURN*        CLOUDY    52  50  93 NE7       29.97R FOG
FORT WAYNE     CLOUDY    54  52  93 NE7       29.96R
HUNTINGTON*    CLOUDY    53  52  96 N7        29.95S
PERU/GRISSOM   CLOUDY    55  55 100 N3        29.94S
MARION*        CLOUDY    53  51  94 N3        29.95S

$$
INZ028>050-250200-
CENTRAL INDIANA

CITY           SKY/WX    TMP DP  RH WIND       PRES   REMARKS
LAFAYETTE      CLOUDY    57  51  80 CALM      29.96R
KOKOMO*        CLOUDY    54  51  90 NE5       29.96S
MUNCIE*        CLOUDY    55  53  93 N9        29.93S
INDIANAPOLIS   CLOUDY    55  52  89 N9        29.94R

$$
MIZ043>046-050>051-056>058-064>065-071>073-077>080-250200-
SOUTHWEST LOWER MICHIGAN

CITY           SKY/WX    TMP DP  RH WIND       PRES   REMARKS
BATTLE CREEK   CLOUDY    54  53  97 N5        29.98S FOG
BENTON HARBOR  CLOUDY    52  46  80 N8        29.98F
COLDWATER*     CLOUDY    52  51  97 E6        29.97S
HILLSDALE*     CLOUDY    50  46  87 CALM      29.97S FOG
HOLLAND        CLOUDY    56  47  71 CALM      29.99S
GRAND RAPIDS   LGT RAIN  55  52  89 N7        30.00R FOG
KALAMAZOO      CLOUDY    56  51  84 NE5       29.99R
STURGIS*       CLOUDY    55  51  86 E7        29.96S
THREE RIVERS*  CLOUDY    57  50  77 NE5       29.97S

$$
OHZ001>008-015>018-024>025-250200-
NORTHWEST OHIO

CITY           SKY/WX    TMP DP  RH WIND       PRES   REMARKS
WAUSEON*       LGT RAIN  50  50 100 NE10      29.96S
DEFIANCE       CLOUDY    52  49  89 NE8       29.96S
FINDLAY        LGT RAIN  53  50  89 N7        29.93R FOG
TOLEDO EXPRESS CLOUDY    50  50 100 NE13      29.96S FOG
TOLEDO METCALF LGT RAIN  49  48  97 NE6       29.97S FOG
LIMA           LGT RAIN  52  52 100 N5        29.93R FOG

$$
AND FOR LAKE MICHIGAN COASTAL AND OPEN LAKE BUOY OBSERVATIONS

STATION/POSITION TEMP    WIND        PRES    VSBY  WAVE
                 AIR SEA DIR/SP/G                  HT/PER
                 (F)     (DEG/KT/KT) (MB)    (MI)  (FT/S)
CALUMET HARBOR    45     330/  6/  7 1015.5R
MICHIGAN CITY     45     360/  1/  2   N/A
BURNS HARBOR      44      CALM  /  3 1016.3S
SAINT JOSEPH      47      40/  7/ 11 1015.9
4 MI NW BRIDGMAN  44 43   20/  8/ 10 1016.1          1/ 3

$$
&&




USA.gov is the U.S. government's official web portal to all federal, state and local government web resources and services.